Location: Bégole
(43.1574°N, 0.3291°E)
Time: 07:01:28
(UTC+00:00)

SL-16 R/B - Pass Details

Date: 28 January 2023
Orbit: 842 x 846 km, 71.0° (Epoch: 26 March)

Event Time Altitude Azimuth Distance (km) Brightness Sun altitude
Rises 19:55:21 0° 223° (SW) 3,387 5.8 -31.0°
Reaches altitude 10° 19:57:54 10° 231° (SW) 2,456 5.1 -31.5°
Maximum altitude 20:03:15 43° 302° (WNW) 1,176 3.2 -32.5°
Enters shadow 20:04:15 39° 329° (NNW) 1,245 3.2 -32.7°
